DW8004 Weather Reports


Display with metric or nautical units.
time (UTC)temp
F
wind
direction
speed
MPH
gust
MPH
rain 1hr
in
rain 24hr
in
rain mn
in
humidity
%
barometer
mb
20260510224605 57 274 0.0 0.0 0.00 0.00 0.00 51 1012.5
20260510223054 58 216 0.0 0.0 0.00 0.00 0.00 49 1012.4
20260510221516 59 261 0.0 0.0 0.00 0.00 0.00 50 1012.2
20260510220100 59 294 0.0 0.0 0.00 0.00 0.00 53 1012.2
20260510214556 59 267 0.0 0.0 0.00 0.00 0.00 56 1012.0
20260510213107 58 321 0.0 0.0 0.00 0.00 0.00 60 1011.8
20260510211504 59 263 0.0 0.0 0.00 0.00 0.00 62 1011.5
20260510210111 60 275 0.0 0.0 0.00 0.02 0.00 59 1011.4
20260510204550 60 311 0.0 0.0 0.00 0.02 0.00 60 1011.2
20260510203037 60 263 0.0 0.0 0.00 0.02 0.00 62 1011.5
20260510201540 60 244 0.0 0.0 0.00 0.02 0.00 63 1011.5
20260510200006 59 324 0.0 0.0 0.00 0.10 0.00 65 1011.5
20260510194522 60 323 0.0 0.0 0.00 0.10 0.00 66 1011.7
20260510193108 59 228 0.0 0.0 0.00 0.10 0.00 70 1011.8
20260510191546 58 228 0.0 0.0 0.00 0.10 0.00 72 1011.9
20260510190017 57 275 0.0 0.0 0.00 0.20 0.00 76 1012.2
20260510184503 58 321 0.0 0.0 0.00 0.20 0.00 77 1012.3
20260510183012 58 221 0.0 0.0 0.00 0.20 0.00 77 1012.4
20260510181604 58 325 0.0 0.0 0.00 0.20 0.00 76 1012.2
20260510180058 58 315 0.0 0.0 0.00 0.30 0.00 77 1012.1
20260510174530 59 277 0.0 0.0 0.00 0.30 0.00 76 1011.9
20260510173002 58 304 0.0 0.0 0.00 0.30 0.00 78 1011.9
20260510171606 58 351 0.0 0.0 0.00 0.30 0.00 79 1012.0
20260510170106 57 262 0.0 0.0 0.00 0.38 0.00 80 1012.1
20260510164559 56 182 0.0 0.0 0.00 0.38 0.00 79 1012.2
20260510163046 56 300 0.0 0.0 0.00 0.38 0.00 81 1012.3
20260510161603 55 286 0.0 0.0 0.00 0.38 0.00 81 1012.4
20260510160112 56 331 0.0 0.0 0.00 0.47 0.00 79 1012.1
20260510154617 56 217 0.0 0.0 0.00 0.47 0.00 79 1012.0
20260510153036 57 252 0.0 0.0 0.00 0.47 0.00 78 1011.8
20260510151541 58 173 0.0 0.0 0.00 0.47 0.00 79 1011.7
20260510150030 57 66 0.0 0.0 0.00 0.53 0.00 78 1011.6
20260510144502 57 255 0.0 0.0 0.00 0.53 0.00 81 1011.4
20260510143054 57 236 0.0 0.0 0.00 0.53 0.00 85 1011.3
20260510141533 55 106 0.0 0.0 0.00 0.53 0.00 86 1011.4
20260510140011 55 214 0.0 0.0 0.00 0.56 0.00 86 1011.4
20260510134608 54 265 0.0 0.0 0.00 0.56 0.00 87 1011.3
20260510133100 53 119 0.0 0.0 0.00 0.56 0.00 88 1011.4
20260510131600 52 38 0.0 0.0 0.00 0.56 0.00 90 1011.8
20260510130016 51 180 0.0 0.0 0.00 0.59 0.00 91 1011.8
20260510124508 52 267 0.0 0.0 0.00 0.59 0.00 94 1011.6
20260510123059 50 267 0.0 0.0 0.00 0.59 0.00 95 1011.5
20260510121543 50 350 0.0 0.0 0.00 0.59 0.00 97 1011.7
20260510120004 48 205 0.0 0.0 0.00 0.59 0.00 97 1011.9
20260510114605 48 205 0.0 0.0 0.00 0.59 0.00 97 1011.9
20260510113100 47 182 0.0 0.0 0.00 0.59 0.00 97 1012.0
20260510111554 47 232 0.0 0.0 0.00 0.59 0.00 97 1011.9
20260510110051 47 324 0.0 0.0 0.00 0.59 0.00 98 1011.5
20260510104558 47 324 0.0 0.0 0.00 0.59 0.00 97 1011.2
20260510103036 47 329 0.0 0.0 0.00 0.59 0.00 98 1011.1
20260510101509 47 283 0.0 0.0 0.00 0.59 0.00 98 1011.1
20260510100101 47 312 0.0 0.0 0.00 0.59 0.00 97 1010.8
20260510094513 47 71 0.0 0.0 0.00 0.59 0.00 98 1010.5
20260510093009 46 71 0.0 0.0 0.00 0.59 0.00 97 1010.6
20260510091508 46 71 0.0 0.0 0.00 0.59 0.00 97 1010.3
20260510090127 46 71 0.0 0.0 0.00 0.59 0.00 97 1010.3
20260510084556 47 71 0.0 0.0 0.00 0.59 0.00 97 1010.3
20260510083031 46 71 0.0 0.0 0.00 0.59 0.00 97 1010.7
20260510081604 47 71 0.0 0.0 0.00 0.59 0.00 97 1010.9
20260510080058 47 69 0.0 0.0 0.00 0.59 0.00 97 1010.9
20260510074557 47 69 0.0 0.0 0.00 0.59 0.00 97 1010.9
20260510073051 47 69 0.0 0.0 0.00 0.59 0.00 97 1011.1
20260510071541 47 69 0.0 0.0 0.00 0.59 0.00 97 1010.9
20260510070044 46 69 0.0 0.0 0.00 0.59 0.00 97 1010.7
20260510064638 46 69 0.0 0.0 0.00 0.59 0.00 97 1010.6
20260510063054 46 69 0.0 0.0 0.00 0.59 0.00 98 1010.8
20260510061542 46 68 0.0 0.0 0.00 0.59 0.00 98 1010.9
20260510060024 46 105 0.0 0.0 0.00 0.59 0.00 98 1011.0
20260510054555 46 237 0.0 0.0 0.00 0.59 0.00 97 1011.0
20260510053100 46 69 0.0 0.0 0.00 0.59 0.00 97 1010.9
20260510051604 46 69 0.0 0.0 0.00 0.59 0.00 97 1011.1
20260510050043 46 69 0.0 0.0 0.00 0.59 0.00 97 1011.2
20260510044532 46 69 0.0 0.0 0.00 0.59 0.00 97 1011.3
20260510043041 46 69 0.0 0.0 0.00 0.59 0.00 97 1011.3
20260510041537 46 69 0.0 0.0 0.00 0.59 0.00 97 1011.4
20260510034530 46 69 0.0 0.0 0.00 0.59 0.59 97 1011.6
20260510033004 46 69 0.0 0.0 0.00 0.59 0.59 97 1011.5
20260510031610 46 69 0.0 0.0 0.00 0.59 0.59 97 1011.5
20260510030100 45 69 0.0 0.0 0.00 0.59 0.59 97 1011.6
20260510024555 46 69 0.0 0.0 0.00 0.59 0.59 97 1011.5
20260510023054 46 69 0.0 0.0 0.00 0.59 0.59 97 1011.5
20260510021557 46 67 0.0 0.0 0.00 0.59 0.59 97 1011.6
20260510020036 46 93 0.0 0.0 0.00 0.59 0.59 96 1011.9
20260510014539 46 93 0.0 0.0 0.00 0.59 0.59 96 1012.0
20260510013023 46 93 0.0 0.0 0.00 0.59 0.59 97 1011.9
20260510011607 46 93 0.0 0.0 0.00 0.59 0.59 96 1011.9
20260510004540 45 93 0.0 0.0 0.00 0.59 0.59 96 1011.5
20260510003021 45 96 0.0 0.0 0.00 0.59 0.59 96 1011.4
20260510001508 46 94 0.0 0.0 0.00 0.59 0.59 96 1011.3
20260510000006 46 94 0.0 0.0 0.00 0.59 0.59 96 1011.0
20260509234533 46 94 0.0 0.0 0.00 0.59 0.59 96 1011.0
20260509233101 46 94 0.0 0.0 0.00 0.59 0.59 96 1010.9
20260509231603 46 105 0.0 0.0 0.00 0.59 0.59 96 1011.0
20260509230031 46 91 0.0 0.0 0.00 0.59 0.59 96 1010.8